Time,TemperatureF,DewpointF,PressureIn,WindDirection,WindDirectionDegrees,WindSpeedMPH,WindSpeedGustMPH,Humidity,HourlyPrecipIn,Conditions,Clouds,dailyrainin,SoftwareType,DateUTC
2013-04-23 00:02:00,30.0,5.0,-100.00,NNE,18,15.0,21.0,34,-99.99,,,-99.99,,2013-04-23 07:02:00,
2013-04-23 00:11:00,30.0,6.0,-100.00,NNE,13,15.0,23.0,35,-99.99,,,-99.99,,2013-04-23 07:11:00,
2013-04-23 00:21:00,30.0,6.0,-100.00,NNE,13,16.0,23.0,36,-99.99,,,-99.99,,2013-04-23 07:21:00,
2013-04-23 00:32:00,30.0,6.0,-100.00,North,10,17.0,24.0,36,-99.99,,,-99.99,,2013-04-23 07:32:00,
2013-04-23 00:42:00,29.0,6.0,-100.00,NNE,13,15.0,24.0,37,-99.99,,,-99.99,,2013-04-23 07:42:00,
2013-04-23 00:52:00,29.0,7.0,-100.00,NNE,20,15.0,25.0,38,-99.99,,,-99.99,,2013-04-23 07:52:00,
2013-04-23 01:01:00,29.0,6.0,-100.00,NNE,14,17.0,26.0,37,-99.99,,,-99.99,,2013-04-23 08:01:00,
2013-04-23 01:11:00,29.0,7.0,-100.00,NNE,18,16.0,25.0,39,-99.99,,,-99.99,,2013-04-23 08:11:00,
2013-04-23 01:21:00,28.0,7.0,-100.00,NNE,25,15.0,22.0,39,-99.99,,,-99.99,,2013-04-23 08:21:00,
2013-04-23 01:31:00,28.0,7.0,-100.00,NNE,24,15.0,26.0,39,-99.99,,,-99.99,,2013-04-23 08:31:00,
2013-04-23 01:42:00,27.0,6.0,-100.00,NE,37,13.0,22.0,40,-99.99,,,-99.99,,2013-04-23 08:42:00,
2013-04-23 01:52:00,27.0,6.0,-100.00,NNE,32,15.0,21.0,40,-99.99,,,-99.99,,2013-04-23 08:52:00,
2013-04-23 02:01:00,28.0,7.0,-100.00,NNE,25,16.0,26.0,40,-99.99,,,-99.99,,2013-04-23 09:01:00,
2013-04-23 02:11:00,27.0,7.0,-100.00,NNE,24,15.0,26.0,41,-99.99,,,-99.99,,2013-04-23 09:11:00,
2013-04-23 02:21:00,27.0,7.0,-100.00,NNE,31,12.0,19.0,42,-99.99,,,-99.99,,2013-04-23 09:21:00,
2013-04-23 02:32:00,27.0,7.0,-100.00,NNE,31,13.0,19.0,43,-99.99,,,-99.99,,2013-04-23 09:32:00,
2013-04-23 02:42:00,26.0,7.0,-100.00,NNE,31,14.0,20.0,43,-99.99,,,-99.99,,2013-04-23 09:42:00,
2013-04-23 02:52:00,26.0,7.0,-100.00,NNE,25,13.0,17.0,44,-99.99,,,-99.99,,2013-04-23 09:52:00,
2013-04-23 03:02:00,26.0,7.0,-100.00,NNE,25,14.0,20.0,44,-99.99,,,-99.99,,2013-04-23 10:02:00,
2013-04-23 03:12:00,26.0,8.0,-100.00,NNE,25,15.0,21.0,45,-99.99,,,-99.99,,2013-04-23 10:12:00,
2013-04-23 03:22:00,26.0,8.0,-100.00,NNE,18,16.0,22.0,45,-99.99,,,-99.99,,2013-04-23 10:22:00,
2013-04-23 03:32:00,25.0,8.0,-100.00,NNE,27,15.0,22.0,46,-99.99,,,-99.99,,2013-04-23 10:32:00,
2013-04-23 03:42:00,25.0,8.0,-100.00,NNE,27,15.0,22.0,46,-99.99,,,-99.99,,2013-04-23 10:42:00,
2013-04-23 03:52:00,25.0,8.0,-100.00,NNE,27,14.0,21.0,47,-99.99,,,-99.99,,2013-04-23 10:52:00,
2013-04-23 04:02:00,25.0,8.0,-100.00,NNE,24,14.0,22.0,48,-99.99,,,-99.99,,2013-04-23 11:02:00,
2013-04-23 04:12:00,25.0,8.0,-100.00,NNE,23,13.0,21.0,49,-99.99,,,-99.99,,2013-04-23 11:12:00,
2013-04-23 04:21:00,24.0,8.0,-100.00,NNE,28,13.0,19.0,50,-99.99,,,-99.99,,2013-04-23 11:21:00,
2013-04-23 04:32:00,24.0,8.0,-100.00,NNE,30,12.0,16.0,51,-99.99,,,-99.99,,2013-04-23 11:32:00,
2013-04-23 04:42:00,24.0,9.0,-100.00,NE,35,11.0,15.0,53,-99.99,,,-99.99,,2013-04-23 11:42:00,
2013-04-23 04:52:00,24.0,9.0,-100.00,NNE,31,11.0,17.0,53,-99.99,,,-99.99,,2013-04-23 11:52:00,
2013-04-23 05:02:00,24.0,10.0,-100.00,NE,34,11.0,16.0,54,-99.99,,,-99.99,,2013-04-23 12:02:00,
2013-04-23 05:12:00,24.0,10.0,-100.00,NNE,31,12.0,17.0,54,-99.99,,,-99.99,,2013-04-23 12:12:00,
2013-04-23 05:22:00,24.0,10.0,-100.00,NE,35,11.0,17.0,55,-99.99,,,-99.99,,2013-04-23 12:22:00,
2013-04-23 05:32:00,24.0,10.0,-100.00,NE,35,11.0,17.0,55,-99.99,,,-99.99,,2013-04-23 12:32:00,
2013-04-23 05:41:00,23.0,10.0,-100.00,NNE,30,12.0,17.0,56,-99.99,,,-99.99,,2013-04-23 12:41:00,
2013-04-23 05:51:00,23.0,10.0,-100.00,NNE,31,11.0,16.0,57,-99.99,,,-99.99,,2013-04-23 12:51:00,
2013-04-23 06:01:00,23.0,10.0,-100.00,NNE,31,11.0,16.0,57,-99.99,,,-99.99,,2013-04-23 13:01:00,
2013-04-23 06:11:00,22.0,11.0,-100.00,NE,35,10.0,14.0,60,-99.99,,,-99.99,,2013-04-23 13:11:00,
2013-04-23 06:21:00,23.0,11.0,-100.00,NE,35,11.0,15.0,60,-99.99,,,-99.99,,2013-04-23 13:21:00,
2013-04-23 06:32:00,22.0,11.0,-100.00,NE,37,10.0,14.0,61,-99.99,,,-99.99,,2013-04-23 13:32:00,
2013-04-23 06:41:00,22.0,11.0,-100.00,NE,35,9.0,13.0,61,-99.99,,,-99.99,,2013-04-23 13:41:00,
2013-04-23 06:52:00,22.0,11.0,-100.00,NE,41,9.0,12.0,62,-99.99,,,-99.99,,2013-04-23 13:52:00,
2013-04-23 07:01:00,22.0,11.0,-100.00,NE,41,9.0,12.0,62,-99.99,,,-99.99,,2013-04-23 14:01:00,
2013-04-23 07:11:00,23.0,12.0,-100.00,NE,45,9.0,13.0,60,-99.99,,,-99.99,,2013-04-23 14:11:00,
2013-04-23 07:22:00,25.0,13.0,-100.00,NE,45,11.0,17.0,60,-99.99,,,-99.99,,2013-04-23 14:22:00,
2013-04-23 07:31:00,25.0,13.0,-100.00,NE,37,12.0,17.0,58,-99.99,,,-99.99,,2013-04-23 14:31:00,
2013-04-23 07:42:00,26.0,13.0,-100.00,NE,40,13.0,18.0,57,-99.99,,,-99.99,,2013-04-23 14:42:00,
2013-04-23 07:52:00,26.0,13.0,-100.00,NE,38,13.0,20.0,57,-99.99,,,-99.99,,2013-04-23 14:52:00,
2013-04-23 08:01:00,26.0,13.0,-100.00,NE,38,13.0,20.0,57,-99.99,,,-99.99,,2013-04-23 15:01:00,
2013-04-23 08:12:00,27.0,13.0,-100.00,NNE,20,12.0,17.0,55,-99.99,,,-99.99,,2013-04-23 15:12:00,
2013-04-23 08:21:00,28.0,13.0,-100.00,NNE,14,12.0,18.0,54,-99.99,,,-99.99,,2013-04-23 15:21:00,
2013-04-23 08:32:00,28.0,13.0,-100.00,NNE,32,13.0,19.0,53,-99.99,,,-99.99,,2013-04-23 15:32:00,
2013-04-23 08:42:00,29.0,13.0,-100.00,NNE,28,12.0,19.0,50,-99.99,,,-99.99,,2013-04-23 15:42:00,
2013-04-23 08:53:00,30.0,12.0,-100.00,NE,48,11.0,19.0,47,-99.99,,,-99.99,,2013-04-23 15:53:00,
2013-04-23 09:02:00,30.0,12.0,-100.00,NE,44,10.0,19.0,47,-99.99,,,-99.99,,2013-04-23 16:02:00,
2013-04-23 09:12:00,30.0,11.0,-100.00,NE,37,12.0,24.0,45,-99.99,,,-99.99,,2013-04-23 16:12:00,
2013-04-23 09:23:00,30.0,9.0,-100.00,NNE,25,12.0,19.0,42,-99.99,,,-99.99,,2013-04-23 16:23:00,
2013-04-23 09:33:00,31.0,9.0,-100.00,NE,34,11.0,20.0,40,-99.99,,,-99.99,,2013-04-23 16:33:00,
2013-04-23 09:42:00,31.0,7.0,-100.00,NNE,28,13.0,22.0,36,-99.99,,,-99.99,,2013-04-23 16:42:00,
2013-04-23 09:52:00,31.0,7.0,-100.00,NNE,18,14.0,21.0,36,-99.99,,,-99.99,,2013-04-23 16:52:00,
2013-04-23 10:02:00,32.0,7.0,-100.00,North,8,11.0,18.0,35,-99.99,,,-99.99,,2013-04-23 17:02:00,
2013-04-23 10:11:00,32.0,7.0,-100.00,North,8,11.0,18.0,35,-99.99,,,-99.99,,2013-04-23 17:11:00,
2013-04-23 10:22:00,33.0,7.0,-100.00,North,11,10.0,17.0,32,-99.99,,,-99.99,,2013-04-23 17:22:00,
2013-04-23 10:32:00,35.0,11.0,-100.00,NNE,24,10.0,17.0,37,-99.99,,,-99.99,,2013-04-23 17:32:00,
2013-04-23 10:42:00,35.0,11.0,-100.00,ENE,65,9.0,17.0,35,-99.99,,,-99.99,,2013-04-23 17:42:00,
2013-04-23 10:53:00,36.0,9.0,-100.00,ENE,71,9.0,18.0,32,-99.99,,,-99.99,,2013-04-23 17:53:00,
2013-04-23 11:02:00,37.0,9.0,-100.00,East,83,8.0,16.0,31,-99.99,,,-99.99,,2013-04-23 18:02:00,
2013-04-23 11:12:00,37.0,11.0,-100.00,ENE,78,8.0,14.0,34,-99.99,,,-99.99,,2013-04-23 18:12:00,
2013-04-23 11:22:00,38.0,10.0,-100.00,East,80,6.0,11.0,30,-99.99,,,-99.99,,2013-04-23 18:22:00,
2013-04-23 11:32:00,38.0,9.0,-100.00,North,7,7.0,15.0,30,-99.99,,,-99.99,,2013-04-23 18:32:00,
2013-04-23 11:42:00,38.0,9.0,-100.00,North,7,7.0,15.0,30,-99.99,,,-99.99,,2013-04-23 18:42:00,
2013-04-23 11:52:00,37.0,1.0,-100.00,North,6,9.0,17.0,21,-99.99,,,-99.99,,2013-04-23 18:52:00,
2013-04-23 12:02:00,38.0,0.0,-100.00,NNE,31,6.0,15.0,20,-99.99,,,-99.99,,2013-04-23 19:02:00,
2013-04-23 12:11:00,39.0,3.0,-100.00,NNE,18,6.0,14.0,21,-99.99,,,-99.99,,2013-04-23 19:11:00,
2013-04-23 12:21:00,39.0,2.0,-100.00,North,8,6.0,16.0,20,-99.99,,,-99.99,,2013-04-23 19:21:00,
2013-04-23 12:32:00,40.0,5.0,-100.00,NNE,23,6.0,13.0,22,-99.99,,,-99.99,,2013-04-23 19:32:00,
2013-04-23 12:42:00,41.0,0.0,-100.00,ENE,64,6.0,13.0,18,-99.99,,,-99.99,,2013-04-23 19:42:00,
2013-04-23 12:52:00,41.0,1.0,-100.00,North,349,6.0,13.0,18,-99.99,,,-99.99,,2013-04-23 19:52:00,
2013-04-23 13:01:00,42.0,4.0,-100.00,NNW,328,4.0,9.0,20,-99.99,,,-99.99,,2013-04-23 20:01:00,
2013-04-23 13:11:00,42.0,1.0,-100.00,NE,56,5.0,11.0,17,-99.99,,,-99.99,,2013-04-23 20:11:00,
2013-04-23 13:21:00,44.0,3.0,-100.00,SSE,162,6.0,13.0,18,-99.99,,,-99.99,,2013-04-23 20:21:00,
2013-04-23 13:31:00,44.0,4.0,-100.00,East,97,6.0,15.0,19,-99.99,,,-99.99,,2013-04-23 20:31:00,
2013-04-23 13:41:00,46.0,2.0,-100.00,ESE,104,6.0,17.0,16,-99.99,,,-99.99,,2013-04-23 20:41:00,
2013-04-23 13:51:00,46.0,1.0,-100.00,ESE,103,5.0,12.0,15,-99.99,,,-99.99,,2013-04-23 20:51:00,
2013-04-23 14:01:00,45.0,0.0,-100.00,East,92,3.0,10.0,15,-99.99,,,-99.99,,2013-04-23 21:01:00,
2013-04-23 14:11:00,44.0,1.0,-100.00,NE,47,7.0,15.0,16,-99.99,,,-99.99,,2013-04-23 21:11:00,
2013-04-23 14:21:00,46.0,3.0,-100.00,ENE,68,5.0,13.0,16,-99.99,,,-99.99,,2013-04-23 21:21:00,
2013-04-23 14:32:00,47.0,2.0,-100.00,South,169,4.0,11.0,15,-99.99,,,-99.99,,2013-04-23 21:32:00,
2013-04-23 14:43:00,47.0,3.0,-100.00,SE,124,3.0,9.0,16,-99.99,,,-99.99,,2013-04-23 21:43:00,
2013-04-23 14:52:00,47.0,4.0,-100.00,SW,220,6.0,12.0,17,-99.99,,,-99.99,,2013-04-23 21:52:00,
2013-04-23 15:03:00,47.0,6.0,-100.00,WNW,282,6.0,15.0,18,-99.99,,,-99.99,,2013-04-23 22:03:00,
2013-04-23 15:12:00,48.0,5.0,-100.00,NW,318,5.0,12.0,17,-99.99,,,-99.99,,2013-04-23 22:12:00,
2013-04-23 15:22:00,49.0,5.0,-100.00,SW,234,3.0,14.0,16,-99.99,,,-99.99,,2013-04-23 22:22:00,
2013-04-23 15:33:00,49.0,5.0,-100.00,South,181,8.0,14.0,16,-99.99,,,-99.99,,2013-04-23 22:33:00,
2013-04-23 15:42:00,49.0,5.0,-100.00,South,181,8.0,14.0,16,-99.99,,,-99.99,,2013-04-23 22:42:00,
2013-04-23 15:52:00,48.0,3.0,-100.00,SW,233,7.0,18.0,15,-99.99,,,-99.99,,2013-04-23 22:52:00,
2013-04-23 16:02:00,50.0,7.0,-100.00,WSW,250,6.0,15.0,17,-99.99,,,-99.99,,2013-04-23 23:02:00,
2013-04-23 16:12:00,50.0,1.0,-100.00,WSW,253,5.0,12.0,13,-99.99,,,-99.99,,2013-04-23 23:12:00,
2013-04-23 16:22:00,50.0,1.0,-100.00,WSW,253,5.0,12.0,13,-99.99,,,-99.99,,2013-04-23 23:22:00,
2013-04-23 16:31:00,50.0,-3.0,-100.00,WNW,295,4.0,14.0,11,-99.99,,,-99.99,,2013-04-23 23:31:00,
2013-04-23 16:42:00,49.0,2.0,-100.00,West,271,10.0,19.0,14,-99.99,,,-99.99,,2013-04-23 23:42:00,
2013-04-23 16:52:00,50.0,1.0,-100.00,WSW,257,8.0,18.0,13,-99.99,,,-99.99,,2013-04-23 23:52:00,
2013-04-23 17:01:00,50.0,2.0,-100.00,SW,236,8.0,19.0,14,-99.99,,,-99.99,,2013-04-24 00:01:00,
2013-04-23 17:11:00,49.0,0.0,-100.00,SW,230,9.0,16.0,13,-99.99,,,-99.99,,2013-04-24 00:11:00,
2013-04-23 17:21:00,49.0,2.0,-100.00,West,264,9.0,15.0,14,-99.99,,,-99.99,,2013-04-24 00:21:00,
2013-04-23 17:32:00,49.0,2.0,-100.00,West,264,9.0,15.0,14,-99.99,,,-99.99,,2013-04-24 00:32:00,
2013-04-23 17:41:00,50.0,1.0,-100.00,WSW,239,6.0,16.0,13,-99.99,,,-99.99,,2013-04-24 00:41:00,
2013-04-23 17:51:00,49.0,-2.0,-100.00,SW,236,6.0,15.0,12,-99.99,,,-99.99,,2013-04-24 00:51:00,
2013-04-23 18:01:00,49.0,-1.0,-100.00,West,275,8.0,16.0,12,-99.99,,,-99.99,,2013-04-24 01:01:00,
2013-04-23 18:11:00,49.0,-2.0,-100.00,West,281,8.0,14.0,12,-99.99,,,-99.99,,2013-04-24 01:11:00,
2013-04-23 18:21:00,48.0,-2.0,-100.00,West,263,7.0,13.0,12,-99.99,,,-99.99,,2013-04-24 01:21:00,
2013-04-23 18:32:00,48.0,-2.0,-100.00,West,267,7.0,12.0,12,-99.99,,,-99.99,,2013-04-24 01:32:00,
2013-04-23 18:42:00,49.0,-2.0,-100.00,West,278,6.0,12.0,12,-99.99,,,-99.99,,2013-04-24 01:42:00,
2013-04-23 18:52:00,48.0,-2.0,-100.00,West,261,6.0,10.0,12,-99.99,,,-99.99,,2013-04-24 01:52:00,
2013-04-23 19:02:00,48.0,1.0,-100.00,WNW,284,4.0,7.0,14,-99.99,,,-99.99,,2013-04-24 02:02:00,
2013-04-23 19:13:00,47.0,1.0,-100.00,NW,316,4.0,6.0,14,-99.99,,,-99.99,,2013-04-24 02:13:00,
2013-04-23 19:24:00,47.0,2.0,-100.00,NW,319,4.0,7.0,15,-99.99,,,-99.99,,2013-04-24 02:24:00,
2013-04-23 19:45:00,45.0,4.0,-100.00,WNW,299,2.0,4.0,18,-99.99,,,-99.99,,2013-04-24 02:45:00,
2013-04-23 19:54:00,43.0,4.0,-100.00,WNW,294,2.0,4.0,19,-99.99,,,-99.99,,2013-04-24 02:54:00,
2013-04-23 20:04:00,39.0,6.0,-100.00,NW,323,1.0,4.0,24,-99.99,,,-99.99,,2013-04-24 03:04:00,
2013-04-23 20:14:00,36.0,7.0,-100.00,NNW,347,0.0,3.0,29,-99.99,,,-99.99,,2013-04-24 03:14:00,
2013-04-23 20:36:00,33.0,9.0,-100.00,North,360,2.0,6.0,36,-99.99,,,-99.99,,2013-04-24 03:36:00,
2013-04-23 21:03:00,28.0,8.0,-100.00,NNW,340,0.0,2.0,41,-99.99,,,-99.99,,2013-04-24 04:03:00,
2013-04-23 21:12:00,28.0,8.0,-100.00,NNW,343,1.0,4.0,43,-99.99,,,-99.99,,2013-04-24 04:12:00,
2013-04-23 21:22:00,27.0,9.0,-100.00,North,357,0.0,2.0,45,-99.99,,,-99.99,,2013-04-24 04:22:00,
2013-04-23 21:33:00,27.0,9.0,-100.00,North,356,2.0,4.0,46,-99.99,,,-99.99,,2013-04-24 04:33:00,
2013-04-23 21:43:00,26.0,8.0,-100.00,NNW,339,2.0,3.0,46,-99.99,,,-99.99,,2013-04-24 04:43:00,
2013-04-23 21:52:00,25.0,9.0,-100.00,NNW,343,1.0,3.0,48,-99.99,,,-99.99,,2013-04-24 04:52:00,
2013-04-23 22:02:00,26.0,8.0,-100.00,NNW,340,1.0,3.0,47,-99.99,,,-99.99,,2013-04-24 05:02:00,
2013-04-23 22:12:00,25.0,9.0,-100.00,NNW,344,1.0,2.0,49,-99.99,,,-99.99,,2013-04-24 05:12:00,
2013-04-23 22:21:00,25.0,9.0,-100.00,NNW,344,1.0,3.0,51,-99.99,,,-99.99,,2013-04-24 05:21:00,
2013-04-23 22:32:00,24.0,9.0,-100.00,North,350,1.0,3.0,51,-99.99,,,-99.99,,2013-04-24 05:32:00,
2013-04-23 22:42:00,24.0,8.0,-100.00,NNW,343,2.0,7.0,51,-99.99,,,-99.99,,2013-04-24 05:42:00,
2013-04-23 22:51:00,27.0,9.0,-100.00,NNW,340,3.0,7.0,46,-99.99,,,-99.99,,2013-04-24 05:51:00,
2013-04-23 23:02:00,28.0,8.0,-100.00,NNW,333,2.0,4.0,43,-99.99,,,-99.99,,2013-04-24 06:02:00,
2013-04-23 23:11:00,27.0,9.0,-100.00,NNW,339,3.0,5.0,45,-99.99,,,-99.99,,2013-04-24 06:11:00,
2013-04-23 23:21:00,27.0,9.0,-100.00,NNE,17,2.0,4.0,47,-99.99,,,-99.99,,2013-04-24 06:21:00,
2013-04-23 23:32:00,25.0,10.0,-100.00,NE,41,4.0,7.0,51,-99.99,,,-99.99,,2013-04-24 06:32:00,
2013-04-23 23:42:00,32.0,11.0,-100.00,ENE,64,6.0,10.0,41,-99.99,,,-99.99,,2013-04-24 06:42:00,
2013-04-23 23:51:00,27.0,10.0,-100.00,NE,40,5.0,9.0,49,-99.99,,,-99.99,,2013-04-24 06:51:00,